﻿測定場所 (Monitoring sites),日付 (Measurement date),時間 (Measurement time),線量率 最大値 (max) μGy/h,線量率 最小値 (min) μGy/h,線量率 平均値 (average) μGy/h,
足立 (Adachi),2020-06-07,23:01～24:00,0.0312,0.0271,0.0295,
足立 (Adachi),2020-06-07,22:01～23:00,0.0313,0.0279,0.0294,
足立 (Adachi),2020-06-07,21:01～22:00,0.0321,0.0278,0.0295,
足立 (Adachi),2020-06-07,20:01～21:00,0.0308,0.0268,0.0293,
足立 (Adachi),2020-06-07,19:01～20:00,0.0316,0.0271,0.0292,
足立 (Adachi),2020-06-07,18:01～19:00,0.0312,0.0274,0.0295,
足立 (Adachi),2020-06-07,17:01～18:00,0.0311,0.0277,0.0294,
足立 (Adachi),2020-06-07,16:01～17:00,0.0314,0.0280,0.0297,
足立 (Adachi),2020-06-07,15:01～16:00,0.0323,0.0275,0.0298,
足立 (Adachi),2020-06-07,14:01～15:00,0.0322,0.0273,0.0298,
足立 (Adachi),2020-06-07,13:01～14:00,0.0312,0.0271,0.0295,
足立 (Adachi),2020-06-07,12:01～13:00,0.0320,0.0281,0.0298,
足立 (Adachi),2020-06-07,11:01～12:00,0.0315,0.0280,0.0296,
足立 (Adachi),2020-06-07,10:01～11:00,0.0322,0.0272,0.0294,
足立 (Adachi),2020-06-07,09:01～10:00,0.0321,0.0282,0.0298,
足立 (Adachi),2020-06-07,08:01～09:00,0.0323,0.0276,0.0297,
足立 (Adachi),2020-06-07,07:01～08:00,0.0316,0.0273,0.0296,
足立 (Adachi),2020-06-07,06:01～07:00,0.0323,0.0281,0.0298,
足立 (Adachi),2020-06-07,05:01～06:00,0.0319,0.0283,0.0300,
足立 (Adachi),2020-06-07,04:01～05:00,0.0319,0.0274,0.0301,
足立 (Adachi),2020-06-07,03:01～04:00,0.0330,0.0293,0.0307,
足立 (Adachi),2020-06-07,02:01～03:00,0.0342,0.0298,0.0324,
足立 (Adachi),2020-06-07,01:01～02:00,0.0388,0.0319,0.0350,
足立 (Adachi),2020-06-07,00:01～01:00,0.0521,0.0382,0.0448,
足立 (Adachi),2020-06-06,23:01～24:00,0.0718,0.0492,0.0601,
足立 (Adachi),2020-06-06,22:01～23:00,0.0880,0.0691,0.0790,
足立 (Adachi),2020-06-06,21:01～22:00,0.0917,0.0564,0.0731,
足立 (Adachi),2020-06-06,20:01～21:00,0.0613,0.0517,0.0560,
足立 (Adachi),2020-06-06,19:01～20:00,0.0653,0.0502,0.0598,
足立 (Adachi),2020-06-06,18:01～19:00,0.0545,0.0346,0.0409,
足立 (Adachi),2020-06-06,17:01～18:00,0.0355,0.0290,0.0310,
足立 (Adachi),2020-06-06,16:01～17:00,0.0330,0.0286,0.0309,
足立 (Adachi),2020-06-06,15:01～16:00,0.0334,0.0286,0.0308,
足立 (Adachi),2020-06-06,14:01～15:00,0.0326,0.0289,0.0308,
足立 (Adachi),2020-06-06,13:01～14:00,0.0323,0.0288,0.0307,
足立 (Adachi),2020-06-06,12:01～13:00,0.0329,0.0285,0.0307,
足立 (Adachi),2020-06-06,11:01～12:00,0.0318,0.0286,0.0304,
足立 (Adachi),2020-06-06,10:01～11:00,0.0318,0.0281,0.0304,
足立 (Adachi),2020-06-06,09:01～10:00,0.0324,0.0287,0.0304,
足立 (Adachi),2020-06-06,08:01～09:00,0.0322,0.0281,0.0304,
足立 (Adachi),2020-06-06,07:01～08:00,0.0328,0.0284,0.0306,
足立 (Adachi),2020-06-06,06:01～07:00,0.0326,0.0283,0.0306,
足立 (Adachi),2020-06-06,05:01～06:00,0.0332,0.0287,0.0306,
足立 (Adachi),2020-06-06,04:01～05:00,0.0328,0.0288,0.0307,
足立 (Adachi),2020-06-06,03:01～04:00,0.0327,0.0288,0.0309,
足立 (Adachi),2020-06-06,02:01～03:00,0.0327,0.0287,0.0307,
足立 (Adachi),2020-06-06,01:01～02:00,0.0323,0.0287,0.0307,
足立 (Adachi),2020-06-06,00:01～01:00,0.0327,0.0290,0.0309,
足立 (Adachi),2020-06-05,23:01～24:00,0.0327,0.0283,0.0307,
足立 (Adachi),2020-06-05,22:01～23:00,0.0332,0.0291,0.0307,
足立 (Adachi),2020-06-05,21:01～22:00,0.0333,0.0289,0.0307,
足立 (Adachi),2020-06-05,20:01～21:00,0.0340,0.0289,0.0310,
足立 (Adachi),2020-06-05,19:01～20:00,0.0324,0.0282,0.0303,
足立 (Adachi),2020-06-05,18:01～19:00,0.0319,0.0280,0.0299,
足立 (Adachi),2020-06-05,17:01～18:00,0.0326,0.0281,0.0302,
足立 (Adachi),2020-06-05,16:01～17:00,0.0323,0.0275,0.0300,
足立 (Adachi),2020-06-05,15:01～16:00,0.0319,0.0277,0.0300,
足立 (Adachi),2020-06-05,14:01～15:00,0.0321,0.0283,0.0301,
足立 (Adachi),2020-06-05,13:01～14:00,0.0320,0.0281,0.0299,
足立 (Adachi),2020-06-05,12:01～13:00,0.0317,0.0285,0.0301,
足立 (Adachi),2020-06-05,11:01～12:00,0.0318,0.0281,0.0303,
足立 (Adachi),2020-06-05,10:01～11:00,0.0324,0.0278,0.0304,
足立 (Adachi),2020-06-05,09:01～10:00,0.0326,0.0288,0.0303,
足立 (Adachi),2020-06-05,08:01～09:00,0.0329,0.0277,0.0301,
足立 (Adachi),2020-06-05,07:01～08:00,0.0324,0.0284,0.0302,
足立 (Adachi),2020-06-05,06:01～07:00,0.0327,0.0288,0.0304,
足立 (Adachi),2020-06-05,05:01～06:00,0.0320,0.0276,0.0301,
足立 (Adachi),2020-06-05,04:01～05:00,0.0322,0.0287,0.0303,
足立 (Adachi),2020-06-05,03:01～04:00,0.0318,0.0287,0.0302,
足立 (Adachi),2020-06-05,02:01～03:00,0.0321,0.0283,0.0302,
足立 (Adachi),2020-06-05,01:01～02:00,0.0317,0.0282,0.0301,
足立 (Adachi),2020-06-05,00:01～01:00,0.0318,0.0275,0.0298,
足立 (Adachi),2020-06-04,23:01～24:00,0.0316,0.0282,0.0301,
足立 (Adachi),2020-06-04,22:01～23:00,0.0318,0.0277,0.0302,
足立 (Adachi),2020-06-04,21:01～22:00,0.0325,0.0282,0.0300,
足立 (Adachi),2020-06-04,20:01～21:00,0.0320,0.0279,0.0301,
足立 (Adachi),2020-06-04,19:01～20:00,0.0324,0.0287,0.0304,
足立 (Adachi),2020-06-04,18:01～19:00,0.0318,0.0275,0.0302,
足立 (Adachi),2020-06-04,17:01～18:00,0.0321,0.0283,0.0300,
足立 (Adachi),2020-06-04,16:01～17:00,0.0325,0.0275,0.0302,
足立 (Adachi),2020-06-04,15:01～16:00,0.0317,0.0276,0.0299,
足立 (Adachi),2020-06-04,14:01～15:00,0.0321,0.0281,0.0301,
足立 (Adachi),2020-06-04,13:01～14:00,0.0317,0.0282,0.0300,
足立 (Adachi),2020-06-04,12:01～13:00,0.0318,0.0278,0.0298,
足立 (Adachi),2020-06-04,11:01～12:00,0.0317,0.0285,0.0299,
足立 (Adachi),2020-06-04,10:01～11:00,0.0311,0.0274,0.0295,
足立 (Adachi),2020-06-04,09:01～10:00,0.0317,0.0282,0.0298,
足立 (Adachi),2020-06-04,08:01～09:00,0.0316,0.0275,0.0298,
足立 (Adachi),2020-06-04,07:01～08:00,0.0320,0.0283,0.0301,
足立 (Adachi),2020-06-04,06:01～07:00,0.0317,0.0282,0.0300,
足立 (Adachi),2020-06-04,05:01～06:00,0.0325,0.0283,0.0302,
足立 (Adachi),2020-06-04,04:01～05:00,0.0323,0.0282,0.0301,
足立 (Adachi),2020-06-04,03:01～04:00,0.0322,0.0274,0.0298,
足立 (Adachi),2020-06-04,02:01～03:00,0.0324,0.0280,0.0302,
足立 (Adachi),2020-06-04,01:01～02:00,0.0320,0.0283,0.0300,
足立 (Adachi),2020-06-04,00:01～01:00,0.0325,0.0282,0.0303,
足立 (Adachi),2020-06-03,23:01～24:00,0.0326,0.0280,0.0303,
足立 (Adachi),2020-06-03,22:01～23:00,0.0314,0.0279,0.0302,
足立 (Adachi),2020-06-03,21:01～22:00,0.0325,0.0282,0.0304,
足立 (Adachi),2020-06-03,20:01～21:00,0.0325,0.0290,0.0303,
足立 (Adachi),2020-06-03,19:01～20:00,0.0319,0.0279,0.0301,
足立 (Adachi),2020-06-03,18:01～19:00,0.0324,0.0283,0.0300,
足立 (Adachi),2020-06-03,17:01～18:00,0.0326,0.0282,0.0300,
足立 (Adachi),2020-06-03,16:01～17:00,0.0326,0.0286,0.0302,
足立 (Adachi),2020-06-03,15:01～16:00,0.0324,0.0284,0.0302,
足立 (Adachi),2020-06-03,14:01～15:00,0.0319,0.0279,0.0301,
足立 (Adachi),2020-06-03,13:01～14:00,0.0319,0.0281,0.0301,
足立 (Adachi),2020-06-03,12:01～13:00,0.0317,0.0282,0.0299,
足立 (Adachi),2020-06-03,11:01～12:00,0.0323,0.0282,0.0300,
足立 (Adachi),2020-06-03,10:01～11:00,0.0318,0.0282,0.0301,
足立 (Adachi),2020-06-03,09:01～10:00,0.0325,0.0266,0.0300,
足立 (Adachi),2020-06-03,08:01～09:00,0.0310,0.0281,0.0299,
足立 (Adachi),2020-06-03,07:01～08:00,0.0324,0.0283,0.0299,
足立 (Adachi),2020-06-03,06:01～07:00,0.0322,0.0281,0.0299,
足立 (Adachi),2020-06-03,05:01～06:00,0.0320,0.0273,0.0300,
足立 (Adachi),2020-06-03,04:01～05:00,0.0316,0.0274,0.0296,
足立 (Adachi),2020-06-03,03:01～04:00,0.0318,0.0278,0.0298,
足立 (Adachi),2020-06-03,02:01～03:00,0.0331,0.0288,0.0307,
足立 (Adachi),2020-06-03,01:01～02:00,0.0319,0.0285,0.0300,
足立 (Adachi),2020-06-03,00:01～01:00,0.0320,0.0280,0.0300,
足立 (Adachi),2020-06-02,23:01～24:00,0.0317,0.0281,0.0297,
足立 (Adachi),2020-06-02,22:01～23:00,0.0317,0.0278,0.0299,
足立 (Adachi),2020-06-02,21:01～22:00,0.0320,0.0274,0.0293,
足立 (Adachi),2020-06-02,20:01～21:00,0.0320,0.0275,0.0298,
足立 (Adachi),2020-06-02,19:01～20:00,0.0329,0.0277,0.0299,
足立 (Adachi),2020-06-02,18:01～19:00,0.0312,0.0275,0.0298,
足立 (Adachi),2020-06-02,17:01～18:00,0.0314,0.0279,0.0296,
足立 (Adachi),2020-06-02,16:01～17:00,0.0317,0.0282,0.0297,
足立 (Adachi),2020-06-02,15:01～16:00,0.0317,0.0273,0.0295,
足立 (Adachi),2020-06-02,14:01～15:00,0.0315,0.0272,0.0293,
足立 (Adachi),2020-06-02,13:01～14:00,0.0303,0.0275,0.0289,
足立 (Adachi),2020-06-02,12:01～13:00,0.0327,0.0275,0.0292,
足立 (Adachi),2020-06-02,11:01～12:00,0.0318,0.0272,0.0294,
足立 (Adachi),2020-06-02,10:01～11:00,0.0310,0.0266,0.0293,
足立 (Adachi),2020-06-02,09:01～10:00,0.0313,0.0270,0.0293,
足立 (Adachi),2020-06-02,08:01～09:00,0.0313,0.0263,0.0289,
足立 (Adachi),2020-06-02,07:01～08:00,0.0309,0.0265,0.0290,
足立 (Adachi),2020-06-02,06:01～07:00,0.0309,0.0272,0.0291,
足立 (Adachi),2020-06-02,05:01～06:00,0.0312,0.0276,0.0294,
足立 (Adachi),2020-06-02,04:01～05:00,0.0316,0.0278,0.0297,
足立 (Adachi),2020-06-02,03:01～04:00,0.0312,0.0274,0.0293,
足立 (Adachi),2020-06-02,02:01～03:00,0.0310,0.0274,0.0290,
足立 (Adachi),2020-06-02,01:01～02:00,0.0311,0.0277,0.0292,
足立 (Adachi),2020-06-02,00:01～01:00,0.0316,0.0278,0.0292,
足立 (Adachi),2020-06-01,23:01～24:00,0.0312,0.0270,0.0294,
足立 (Adachi),2020-06-01,22:01～23:00,0.0313,0.0269,0.0291,
足立 (Adachi),2020-06-01,21:01～22:00,0.0314,0.0277,0.0296,
足立 (Adachi),2020-06-01,20:01～21:00,0.0317,0.0280,0.0300,
足立 (Adachi),2020-06-01,19:01～20:00,0.0336,0.0282,0.0309,
足立 (Adachi),2020-06-01,18:01～19:00,0.0333,0.0270,0.0292,
足立 (Adachi),2020-06-01,17:01～18:00,0.0309,0.0270,0.0291,
足立 (Adachi),2020-06-01,16:01～17:00,0.0320,0.0277,0.0297,
足立 (Adachi),2020-06-01,15:01～16:00,0.0325,0.0288,0.0304,
足立 (Adachi),2020-06-01,14:01～15:00,0.0329,0.0291,0.0311,
足立 (Adachi),2020-06-01,13:01～14:00,0.0323,0.0278,0.0304,
足立 (Adachi),2020-06-01,12:01～13:00,0.0326,0.0275,0.0299,
足立 (Adachi),2020-06-01,11:01～12:00,0.0329,0.0282,0.0308,
足立 (Adachi),2020-06-01,10:01～11:00,0.0336,0.0292,0.0320,
足立 (Adachi),2020-06-01,09:01～10:00,0.0344,0.0290,0.0312,
足立 (Adachi),2020-06-01,08:01～09:00,0.0326,0.0290,0.0304,
足立 (Adachi),2020-06-01,07:01～08:00,0.0322,0.0287,0.0301,
足立 (Adachi),2020-06-01,06:01～07:00,0.0311,0.0268,0.0292,
足立 (Adachi),2020-06-01,05:01～06:00,0.0316,0.0270,0.0293,
足立 (Adachi),2020-06-01,04:01～05:00,0.0316,0.0270,0.0298,
足立 (Adachi),2020-06-01,03:01～04:00,0.0314,0.0281,0.0294,
足立 (Adachi),2020-06-01,02:01～03:00,0.0310,0.0276,0.0293,
足立 (Adachi),2020-06-01,01:01～02:00,0.0317,0.0275,0.0295,
足立 (Adachi),2020-06-01,00:01～01:00,0.0315,0.0264,0.0295,
